STARLINK-4573, 53623

Orbit data source: Space-Track

STARLINK-4573, 53623 is a payload satellite owned by SpaceX/Seattle (US) in LEO that was launched on Sun, 28 Aug 2022 UTC via an FALCON 9 launch vehicle from the Air Force Eastern Test Range (AFETR). Payload-class satellites include a variety of spacecraft equipped with specific instruments for various scientific and technological missions. These include communications satellites like Starlink; space stations such as the ISS; scientific satellites like the Hubble; Earth observation satellites from companies like Planet Labs, Umbra, and HawkEye 360; GPS; miniature CubeSats for education and research; and military/defense satellites.

Loading next visibility...
Identifier
53623, 2022-104AM
Orbit
LEO
Last TLE update
19 hours ago
Origin
Manufacturer
SpaceX/Seattle
Mission
Operational Commercial Communications
Bus & Motor
STARLINK, Unknown motor
Mass
300 kg wet, ~290 kg dry
Launch date (UTC)
2022-08-28 (3 years ago)
Launch vehicle
FALCON 9
Launch site
Air Force Eastern Test Range (AFETR)
Object type
Payload
Rocket body
Debris
Shape & HBR
Box + 1 Pan, 8.86 m
Radar Cross Section
13.562 m², Large (>1 m²)

Expand to show TLE details & history

TLE from 19 hours ago
0 STARLINK-4573
1 53623U 22104AM  25181.62565723  .00000289  00000-0  36266-4 0  9997
2 53623  53.2179 285.5576 0001064  88.1701 271.9413 15.08840771157698
Epoch: 2025-06-30T15:00Z
TLE epoch observation values (Epoch: 2025-06-30T15:00:56.784Z)
Latitude
-0.00003°
Longitude
141.3882°
Altitude
540.614 km
Speed
7.593 km/s
True Right ascension
19h 02m 13s
True Declination
0° 00' 00"
Sunlit
Object was in full shadow at epoch
Visualization orbit readout
Latitude
-52.23809°
Longitude
31.61199°
Altitude
558.609 km
Speed
7.582 km/s
Apparent Right ascension
10h 24m 57s
Apparent Declination
-47° 37' 02"
Sunlit
Object is in daylight
Visualization observer readout
Local Sidereal Time
21:17:22
Azimuth
232.069° WSW
Elevation
-75.619°
Doppler factor
1
Orbital elements
Apogee altitude
540.722 km
Perigee altitude
539.25 km
Semi-major axis
6,918.123 km
Eccentricity
0.00011
Inclination
53.2179°
RAAN
285.5576°
Arg. of periapsis
88.1701°
True anomaly
Unknown
Mean anomaly
271.9413°
Eccentric anomaly
Unknown
Mean motion
3.77191 °/min
Orbital period
95.44 mins
BSTAR
0.000036266
Loading maneuver chart data...
Loading SW <> Apogee altitude chart data...
Loading historical data...
Loading historical data...
Loading historical data...
Loading historical data...
Loading historical data...
Loading historical data...
Loading historical data...

STARLINK-4573 Visibility forecast

Observer location: undefined°, undefined°

Span
Click to sort rows by Start time (UTC) header in descending order
Start Az.
Max El. time (UTC)
Max El. Az.
Max El.
End time (UTC)
End Az.
6 mins2025-07-01 10:18:03.553Z255.593° W2025-07-01 10:21:03.553Z321.548° NNW35.626°2025-07-01 10:24:03.553Z34.915° NE
5 mins2025-07-01 15:20:03.553Z337.246° NNW2025-07-01 15:22:03.553Z17.123° NNE25.889°2025-07-01 15:25:03.553Z82.289° E
6 mins2025-07-01 16:59:03.553Z293.735° NW2025-07-01 17:02:03.553Z218.479° SW35.499°2025-07-01 17:05:03.553Z156.28° SSE
5 mins2025-07-02 08:31:03.553Z181.55° SSW2025-07-02 08:33:03.553Z136.308° SSE27.904°2025-07-02 08:36:03.553Z73.68° E
|